This is the latest recevied weather packets stored in our database for station/object VE3VGJ. If no packets are shown the sender has not sent any weather packets the latest 10 day(s).
| Time | Temp. | Humidity | Pressure | Rain* | Wind** | Luminosity | Snow |
|---|---|---|---|---|---|---|---|
| 1778077638 | 6.11° C | 92% | 1009.9 hPa | 0 mm | - | 250 W/m² | - |
| 1778077336 | 6.67° C | 92% | 1009.8 hPa | 0 mm | - | 243 W/m² | - |
| 1778077034 | 6.11° C | 93% | 1009.7 hPa | 0 mm | - | 284 W/m² | - |
| 1778076732 | 6.67° C | 93% | 1009.6 hPa | 0 mm | - | 239 W/m² | - |
| 1778076429 | 6.11° C | 93% | 1009.6 hPa | 0 mm | - | 235 W/m² | - |
| 1778076126 | 6.11° C | 94% | 1009.9 hPa | 0 mm | - | 253 W/m² | - |
| 1778075823 | 6.11° C | 94% | 1009.8 hPa | 0 mm | - | 232 W/m² | - |
| 1778075519 | 6.11° C | 94% | 1009.9 hPa | 0 mm | - | 186 W/m² | - |
| 1778075216 | 6.11° C | 95% | 1010 hPa | 0 mm | - | 171 W/m² | - |
| 1778074912 | 6.11° C | 95% | 1009.6 hPa | 0 mm | - | 191 W/m² | - |
| 1778074609 | 6.11° C | 95% | 1009.8 hPa | 1.27 mm | - | 167 W/m² | - |
| 1778074306 | 6.11° C | 95% | 1009.9 hPa | 1.27 mm | - | 117 W/m² | - |
| 1778074003 | 5.56° C | 95% | 1010 hPa | 0 mm | - | 123 W/m² | - |
| 1778073700 | 5.56° C | 95% | 1009.7 hPa | 0 mm | - | 90 W/m² | - |
| 1778073398 | 5.56° C | 95% | 1009.9 hPa | 0 mm | - | 65 W/m² | - |
| 1778073093 | 5.56° C | 95% | 1009.7 hPa | 0 mm | - | 58 W/m² | - |
| 1778072790 | 5.56° C | 95% | 1010 hPa | 0 mm | - | 45 W/m² | - |
| 1778072488 | 5.56° C | 95% | 1009.7 hPa | 0 mm | - | 49 W/m² | - |
| 1778072186 | 5.56° C | 95% | 1009.5 hPa | 0 mm | - | 36 W/m² | - |
| 1778071883 | 5.56° C | 95% | 1009.3 hPa | 0 mm | - | 47 W/m² | - |
| 1778071581 | 5.56° C | 95% | 1009.2 hPa | 0 mm | - | 52 W/m² | - |
| 1778071279 | 5.56° C | 95% | 1009.1 hPa | 0 mm | - | 50 W/m² | - |
| 1778070976 | 5.56° C | 95% | 1009.3 hPa | 0 mm | - | 55 W/m² | - |
| 1778070675 | 5.56° C | 95% | 1009.2 hPa | 0 mm | - | 45 W/m² | - |
| 1778070371 | 5.56° C | 95% | 1009.3 hPa | 0 mm | - | 37 W/m² | - |
* Rain latest hour (hover to see other rain measurements)
** Current wind speed in m/s (hover to see current wind gust speed)